Weather History for KDKK - May, 2013

Change the Weather History Date:

Friday, May 10, 2013

  Actual Average Record
Temperature  
Mean Temperature 60 °F -  
Max Temperature 77 °F 65 °F 82 °F (1936)
Min Temperature 46 °F 46 °F 27 °F (1947)
Degree Days  
Heating Degree Days 4    
Growing Degree Days 10 (Base 50)    
Moisture  
Dew Point 54 °F    
Average Humidity 77    
Maximum Humidity 92    
Minimum Humidity 51    
Precipitation  
Precipitation 0.60 in - - ()
Sea Level Pressure  
Sea Level Pressure 29.83 in    
Wind  
Wind Speed 6 mph (SSW)    
Max Wind Speed 14 mph    
Max Gust Speed 24 mph    
Visibility 9 miles    
Events Rain , Thunderstorm    
Averages and records for this station are not official NWS values.
T = Trace of Precipitation, MM = Missing Value Source: NWS Daily Summary

Daily Weather History Graph

Daily Weather History Graph

Search for Another Location

Airport or City:

Trip Planner

Search our weather history database for the weather conditions in past years. The results will help you decide how hot, cold, wet, or windy it might be!

Date:

Astronomy

May. 10, 2013 Rise Set
Actual Time 6:00 AM EDT 8:27 PM EDT
Civil Twilight 5:28 AM EDT 8:59 PM EDT
Nautical Twilight 4:49 AM EDT 9:38 PM EDT
Astronomical Twilight 4:05 AM EDT 10:23 PM EDT
Moon 6:23 AM EDT (5/10) 9:15 PM EDT (5/10)
Length of Visible Light 15h 30m
Length of Day
14h 26m
New Moon, 0% of the Moon is Illuminated
May 10
New Moon
May 18
First Quarter
May 25
Full
May 31
Last Quarter
Jun 8
New

Hourly Weather History & Observations

Time (EDT) Temp. Dew Point Humidity Pressure Visibility Wind Dir Wind Speed Gust Speed Precip Events Conditions
12:53 AM 51.1 °F 48.9 °F 92% 29.96 in 10.0 mi Calm Calm - N/A   Clear
2:53 AM 48.9 °F 46.0 °F 90% 29.96 in 10.0 mi Calm Calm - N/A   Clear
3:53 AM 46.9 °F 44.1 °F 90% 29.94 in 10.0 mi Calm Calm - N/A   Clear
4:53 AM 48.0 °F 45.0 °F 89% 29.92 in 10.0 mi Calm Calm - N/A   Clear
5:53 AM 48.9 °F 45.0 °F 86% 29.91 in 10.0 mi Calm Calm - N/A   Clear
6:53 AM 55.9 °F 48.0 °F 75% 29.88 in 10.0 mi Calm Calm - N/A   Scattered Clouds
7:53 AM 66.0 °F 48.0 °F 52% 29.87 in 10.0 mi South 13.8 mph 23.0 mph N/A   Mostly Cloudy
8:53 AM 63.0 °F 48.0 °F 58% 29.91 in 10.0 mi SW 13.8 mph 24.2 mph N/A   Overcast
9:53 AM 60.1 °F 53.1 °F 78% 29.90 in 8.0 mi SW 5.8 mph - 0.02 in Rain Light Rain
10:53 AM 64.0 °F 55.0 °F 73% 29.88 in 10.0 mi South 9.2 mph - 0.00 in   Mostly Cloudy
11:53 AM 72.0 °F 55.9 °F 57% 29.84 in 10.0 mi SSW 12.7 mph 24.2 mph N/A   Overcast
1:53 PM 73.0 °F 57.0 °F 57% 29.82 in 10.0 mi South 9.2 mph - N/A   Mostly Cloudy
2:53 PM 75.0 °F 55.9 °F 51% 29.79 in 10.0 mi SSW 13.8 mph 24.2 mph N/A   Overcast
3:53 PM 73.9 °F 57.9 °F 57% 29.76 in 10.0 mi SSW 12.7 mph 21.9 mph 0.00 in Thunderstorm Scattered Clouds
4:21 PM 71.6 °F 57.2 °F 60% 29.77 in 10.0 mi SSW 13.8 mph 21.9 mph 0.00 in Rain Light Rain
4:53 PM 69.1 °F 60.1 °F 73% 29.77 in 8.0 mi SSW 10.4 mph - 0.01 in Rain Light Rain
5:04 PM 66.2 °F 60.8 °F 83% 29.78 in 7.0 mi SSW 12.7 mph 23.0 mph 0.02 in Rain , Thunderstorm Rain
5:23 PM 64.4 °F 59.0 °F 83% 29.76 in 9.0 mi South 10.4 mph - 0.03 in Rain Light Rain
5:53 PM 64.9 °F 59.0 °F 81% 29.78 in 10.0 mi SSW 12.7 mph 20.7 mph 0.04 in Rain Light Rain
6:53 PM 62.1 °F 57.9 °F 86% 29.78 in 5.0 mi South 12.7 mph 21.9 mph 0.14 in Rain Light Rain
7:53 PM 61.0 °F 57.0 °F 87% 29.78 in 5.0 mi South 11.5 mph - 0.24 in Rain Rain
8:53 PM 60.1 °F 57.0 °F 90% 29.77 in 8.0 mi SW 8.1 mph - 0.08 in Rain Light Rain
9:53 PM 60.1 °F 57.0 °F 90% 29.76 in 10.0 mi SSW 6.9 mph - 0.04 in Rain Light Rain
10:42 PM 60.8 °F 57.2 °F 88% 29.75 in 10.0 mi SSW 8.1 mph - 0.02 in Rain Light Rain
10:53 PM 60.1 °F 57.0 °F 90% 29.74 in 10.0 mi SSW 9.2 mph - 0.02 in Rain Light Rain
11:53 PM 60.1 °F 57.0 °F 90% 29.73 in 10.0 mi SSW 8.1 mph - 0.01 in   Overcast